User: anonymous   Login
Location: Lawrence Hall of Science
(37.8785°N, 122.2415°W)
Time: 01:33:58
(UTC-07:00)
Language:

Cosmos 1461 - Orbit

View from above orbital plane
View from above orbital plane
View from above satellite
View from above satellite

Ground track
Ground track

The orbit data is extracted from the following two-line orbital elements,

1 14064U 83044A   16125.20154919  .00000988  00000-0  98758-4 0  9996
2 14064  65.0000 109.5583 0114064 215.7600 143.5841 14.92931332662283
Epoch (UTC): 04 May 2016 04:50:13
Eccentricity: 0.0114064
inclination: 65.0000°
perigee height: 509 km
apogee height: 668 km
right ascension of ascending node: 109.5583°
argument of perigee: 215.7600°
revolutions per day: 14.92931332
mean anomaly at epoch: 143.5841°
orbit number at epoch: 66228

The dashed part of the orbit path shows where the satellite is in the earth's shadow,  

DLR